Location: Unnamed
(51.8936°N, 11.0665°E)
Time: 16:24:20
(UTC+02:00)

UKube-1 - Pass Details

Date: 03 October 2021
Orbit: 611 x 617 km, 98.4° (Epoch: 28 October)

Event Time Altitude Azimuth Distance (km) Brightness Sun altitude
Rises 22:13:57 0° 15° (NNE) 2,894 ? -30.8°
Reaches altitude 10° 22:16:09 10° 16° (NNE) 1,985 ? -31.0°
Enters shadow 22:16:16 11° 16° (NNE) 1,935 ? -31.0°
